This is the latest recevied weather packets stored in our database for station/object DJ2DS-13. If no packets are shown the sender has not sent any weather packets the latest 1 day(s).
| Time | Temp. | Humidity | Pressure | Rain* | Wind** | Luminosity | Snow |
|---|---|---|---|---|---|---|---|
| 1778004982 | 10° C | 84% | 1009.4 hPa | 0 mm | 0.89 m/s, 37° | 25 W/m² | - |
| 1778004682 | 10° C | 84% | 1009.3 hPa | 0 mm | 0.89 m/s, 48° | 23 W/m² | - |
| 1778004380 | 10° C | 84% | 1009.3 hPa | 0 mm | 1.34 m/s, 7° | 25 W/m² | - |
| 1778004079 | 10° C | 84% | 1009.4 hPa | 0 mm | 0.89 m/s, 0° | 26 W/m² | - |
| 1778003781 | 10° C | 83% | 1009.3 hPa | 0 mm | 1.34 m/s, 14° | 26 W/m² | - |
| 1778003477 | 10° C | 84% | 1009.4 hPa | 0 mm | 0.89 m/s, 21° | 26 W/m² | - |
| 1778003177 | 10° C | 83% | 1009.4 hPa | 0 mm | 1.34 m/s, 11° | 28 W/m² | - |
| 1778002577 | 10.56° C | 84% | 1009.4 hPa | 0 mm | 0.89 m/s, 6° | 30 W/m² | - |
| 1778002276 | 10° C | 83% | 1009.4 hPa | 0 mm | 1.34 m/s, 28° | 32 W/m² | - |
| 1778001976 | 10.56° C | 83% | 1009.4 hPa | 0 mm | 1.34 m/s, 11° | 39 W/m² | - |
| 1778001675 | 10.56° C | 83% | 1009.5 hPa | 0 mm | 1.34 m/s, 0° | 46 W/m² | - |
| 1778001374 | 10.56° C | 83% | 1009.5 hPa | 0 mm | 1.79 m/s, 4° | 48 W/m² | - |
| 1778001074 | 10.56° C | 83% | 1009.6 hPa | 0 mm | 0.89 m/s, 18° | 48 W/m² | - |
| 1778000771 | 10.56° C | 83% | 1009.6 hPa | 0 mm | 1.34 m/s, 27° | 49 W/m² | - |
| 1778000472 | 10.56° C | 83% | 1009.6 hPa | 0 mm | 0.89 m/s, 82° | 53 W/m² | - |
| 1778000170 | 10.56° C | 83% | 1009.6 hPa | 0 mm | 1.34 m/s, 351° | 51 W/m² | - |
| 1777999869 | 10.56° C | 83% | 1009.6 hPa | 0 mm | 1.34 m/s, 353° | 58 W/m² | - |
| 1777999569 | 10.56° C | 83% | 1009.6 hPa | 0 mm | 1.34 m/s, 14° | 69 W/m² | - |
| 1777999267 | 10.56° C | 83% | 1009.6 hPa | 0 mm | 1.79 m/s, 0° | 70 W/m² | - |
| 1777998967 | 10.56° C | 83% | 1009.6 hPa | 0 mm | 1.79 m/s, 8° | 84 W/m² | - |
| 1777998667 | 10.56° C | 82% | 1009.6 hPa | 0 mm | 0.89 m/s, 0° | 99 W/m² | - |
| 1777998368 | 10.56° C | 82% | 1009.7 hPa | 0 mm | 1.79 m/s, 24° | 100 W/m² | - |
| 1777998067 | 10.56° C | 82% | 1009.7 hPa | 0 mm | 0.89 m/s, 0° | 95 W/m² | - |
| 1777997765 | 11.11° C | 81% | 1009.7 hPa | 0 mm | 1.34 m/s, 14° | 100 W/m² | - |
| 1777997466 | 11.11° C | 82% | 1009.7 hPa | 0 mm | 0.89 m/s, 13° | 113 W/m² | - |
* Rain latest hour (hover to see other rain measurements)
** Current wind speed in m/s (hover to see current wind gust speed)